Leesburg, FL

6:26 PM EDT on April 21, 2018 (GMT -0400)
Leesburg Regional

Weather History for KLEE - July, 2013

Change the Weather History Date:

Monday, July 1, 2013

  Actual Average Record
Temperature  
Mean Temperature 80 °F -  
Max Temperature 84 °F 90 °F 97 °F (1998)
Min Temperature 73 °F 71 °F 64 °F (1970)
Cooling Degree Days 14    
Growing Degree Days 30 (Base 50)    
Moisture  
Dew Point 73 °F    
Average Humidity 84    
Maximum Humidity 94    
Minimum Humidity 66    
Precipitation  
Precipitation 0.04 in - - ()
Sea Level Pressure  
Sea Level Pressure 29.95 in    
Wind  
Wind Speed 12 mph (South)    
Max Wind Speed 17 mph    
Max Gust Speed 24 mph    
Visibility 10 miles    
Events Rain    
Averages and records for this station are not official NWS values.
T = Trace of Precipitation, MM = Missing Value Source: NWS Daily Summary

Daily Weather History Graph

Daily Weather History Graph

Search for Another Location

Airport or City:

Astronomy

Jul. 01, 2013 Rise Set
Actual Time 6:32 AM EDT 8:29 PM EDT
Civil Twilight 6:05 AM EDT 8:56 PM EDT
Nautical Twilight 5:33 AM EDT 9:29 PM EDT
Astronomical Twilight 4:58 AM EDT 10:03 PM EDT
Moon 1:43 AM EDT (7/1) 2:58 PM EDT (7/1)
Length of Visible Light 14h 50m
Length of Day
13h 56m
Waning Crescent, 35% of the Moon is Illuminated
Jul 1
Waning Crescent
Jul 8
New
Jul 15
First Quarter
Jul 22
Full
Jul 29
Last Quarter

Hourly Weather History & Observations

Time (EDT) Temp. Heat Index Dew Point Humidity Pressure Visibility Wind Dir Wind Speed Gust Speed Precip Events Conditions
12:53 AM 75.9 °F - 73.0 °F 91% 29.91 in 10.0 mi SSW 10.4 mph - N/A   Clear
1:53 AM 75.9 °F - 73.0 °F 91% 29.89 in 10.0 mi South 13.8 mph - N/A   Clear
2:53 AM 75.9 °F - 73.0 °F 91% 29.90 in 10.0 mi SSW 10.4 mph - N/A   Mostly Cloudy
3:15 AM 75.2 °F - 73.4 °F 94% 29.89 in 10.0 mi South 10.4 mph - N/A   Mostly Cloudy
3:51 AM 75.2 °F - 73.4 °F 94% 29.88 in 10.0 mi South 12.7 mph 19.6 mph 0.00 in Rain Light Rain
3:53 AM 75.9 °F - 73.0 °F 91% 29.87 in 10.0 mi South 12.7 mph 19.6 mph 0.00 in Rain Light Rain
4:53 AM 77.0 °F - 73.0 °F 88% 29.88 in 10.0 mi South 15.0 mph - 0.00 in   Partly Cloudy
5:53 AM 77.0 °F - 73.0 °F 88% 29.88 in 10.0 mi South 11.5 mph 18.4 mph N/A   Scattered Clouds
6:53 AM 77.0 °F - 73.0 °F 88% 29.91 in 10.0 mi South 13.8 mph - N/A   Mostly Cloudy
7:13 AM 77.0 °F - 73.4 °F 89% 29.91 in 10.0 mi South 15.0 mph 23.0 mph N/A   Scattered Clouds
7:53 AM 78.1 °F - 73.0 °F 84% 29.93 in 10.0 mi South 13.8 mph 20.7 mph N/A   Partly Cloudy
8:07 AM 78.8 °F - 73.4 °F 83% 29.94 in 10.0 mi South 17.3 mph 23.0 mph N/A   Mostly Cloudy
8:20 AM 78.8 °F - 73.4 °F 83% 29.94 in 10.0 mi South 15.0 mph 23.0 mph N/A   Mostly Cloudy
8:31 AM 78.8 °F - 73.4 °F 83% 29.93 in 10.0 mi South 12.7 mph 21.9 mph N/A   Scattered Clouds
8:38 AM 78.8 °F - 73.4 °F 83% 29.94 in 10.0 mi South 13.8 mph 21.9 mph N/A   Mostly Cloudy
8:53 AM 78.1 °F - 73.0 °F 84% 29.94 in 10.0 mi South 13.8 mph 21.9 mph N/A   Overcast
9:16 AM 80.6 °F 85.4 °F 73.4 °F 79% 29.94 in 10.0 mi South 13.8 mph 21.9 mph N/A   Scattered Clouds
9:53 AM 82.0 °F 87.4 °F 73.0 °F 74% 29.94 in 10.0 mi South 13.8 mph - N/A   Clear
10:53 AM 81.0 °F 85.8 °F 73.0 °F 77% 29.95 in 10.0 mi South 12.7 mph - N/A   Scattered Clouds
11:31 AM 80.6 °F 85.4 °F 73.4 °F 79% 29.97 in 10.0 mi South 11.5 mph - N/A   Mostly Cloudy
11:53 AM 81.0 °F 85.8 °F 73.0 °F 77% 29.97 in 10.0 mi South 10.4 mph - N/A   Overcast
12:14 PM 80.6 °F 85.4 °F 73.4 °F 79% 29.98 in 10.0 mi South 8.1 mph - N/A   Scattered Clouds
12:53 PM 81.0 °F 85.8 °F 73.0 °F 77% 29.98 in 10.0 mi South 10.4 mph - N/A   Mostly Cloudy
1:44 PM 82.4 °F 88.2 °F 73.4 °F 74% 29.95 in 10.0 mi South 11.5 mph 18.4 mph 0.00 in   Mostly Cloudy
1:53 PM 82.9 °F 88.8 °F 73.0 °F 72% 29.95 in 10.0 mi South 10.4 mph - 0.00 in   Mostly Cloudy
2:46 PM 84.2 °F 89.6 °F 71.6 °F 66% 29.95 in 10.0 mi South 12.7 mph 21.9 mph N/A   Scattered Clouds
2:53 PM 84.0 °F 89.6 °F 72.0 °F 67% 29.95 in 10.0 mi SSW 15.0 mph 19.6 mph N/A   Partly Cloudy
3:53 PM 82.9 °F 88.8 °F 73.0 °F 72% 29.96 in 10.0 mi South 11.5 mph 19.6 mph N/A   Mostly Cloudy
4:53 PM 77.0 °F - 73.0 °F 88% 29.97 in 10.0 mi South 16.1 mph 24.2 mph 0.01 in Rain Light Rain
5:53 PM 77.0 °F - 73.0 °F 88% 29.97 in 10.0 mi South 9.2 mph - 0.00 in   Scattered Clouds
6:53 PM 77.0 °F - 73.0 °F 88% 29.98 in 10.0 mi South 10.4 mph - 0.00 in   Overcast
7:53 PM 78.1 °F - 73.0 °F 84% 30.01 in 10.0 mi South 9.2 mph - N/A   Mostly Cloudy
8:13 PM 77.0 °F - 71.6 °F 83% 30.01 in 10.0 mi South 13.8 mph 20.7 mph 0.00 in Rain Light Rain
8:21 PM 77.0 °F - 71.6 °F 83% 30.01 in 10.0 mi South 13.8 mph 20.7 mph 0.01 in Rain Light Rain
8:53 PM 75.0 °F - 72.0 °F 90% 30.00 in 10.0 mi South 6.9 mph - 0.01 in Rain Light Rain
9:40 PM 75.2 °F - 71.6 °F 89% 30.02 in 10.0 mi South 8.1 mph - 0.01 in   Partly Cloudy
9:53 PM 75.0 °F - 72.0 °F 90% 30.02 in 10.0 mi SSE 6.9 mph - 0.01 in   Mostly Cloudy
10:25 PM 75.2 °F - 71.6 °F 89% 30.04 in 10.0 mi South 11.5 mph - N/A   Mostly Cloudy
10:53 PM 75.0 °F - 72.0 °F 90% 30.04 in 10.0 mi South 9.2 mph - 0.00 in Rain Light Rain
11:53 PM 73.9 °F - 72.0 °F 93% 30.04 in 10.0 mi SE 5.8 mph - 0.01 in Rain Light Rain